Voltar ao catálogo

CZ-5 R/B

AtivoHEO
NORAD 59021·ROCKET BODY·🇨🇳 China

Lançado Feb 23, 2024 de Wenchang Space Launch Site

Loading…

Próximas Passagens (próximas 24 horas)

TLE

AtualizadoSource: Space-Track

Época: Sep 14, 2026, 01:43 UTC

1 59021U 24037B   26257.07192719  .00007119  00000-0  13160-2 0  9992
2 59021  16.3328 278.2979 7029860 270.2828  16.4273  2.61102038 23716

Acompanhe CZ-5 R/B em tempo real com AllMySat

Download on the App Store